| time (UTC) | temp F | wind direction | speed MPH | gust MPH | rain 1hr in | rain 24hr in | rain mn in | humidity % | barometer mb |
| 20260902113125 | 74 | 133 | 1.0 | 4.0 | 0.00 | 0.00 | 0.00 | 53 | |
| 20260902110035 | 73 | 148 | 1.0 | 7.0 | 0.00 | 0.00 | 0.00 | 55 | |
| 20260902103106 | 71 | 135 | 0.0 | 4.0 | 0.00 | 0.00 | 0.00 | 60 | |
| 20260902100036 | 70 | 129 | 1.0 | 3.0 | 0.00 | 0.00 | 0.00 | 62 | |
| 20260902093107 | 70 | 118 | 1.0 | 6.0 | 0.00 | 0.00 | 0.00 | 64 | |
| 20260902090037 | 68 | 135 | 0.0 | 2.0 | 0.00 | 0.00 | 0.00 | 72 | |
| 20260902083108 | 64 | 149 | 0.0 | 2.0 | 0.00 | 0.00 | 0.00 | 78 | |
| 20260902080039 | 64 | 147 | 1.0 | 2.0 | 0.00 | 0.00 | 0.00 | 78 | |
| 20260902073110 | 62 | 133 | 1.0 | 6.0 | 0.00 | 0.00 | 0.00 | 79 | |
| 20260902070059 | 59 | 129 | 1.0 | 3.0 | 0.00 | 0.00 | 0.00 | 84 | |
| 20260902063110 | 56 | 127 | 1.0 | 3.0 | 0.00 | 0.00 | 0.00 | 88 | |
| 20260902060039 | 52 | 131 | 1.0 | 4.0 | 0.00 | 0.00 | 0.00 | 93 | |
| 20260902053109 | 50 | 137 | 1.0 | 3.0 | 0.00 | 0.00 | 0.00 | 97 | |
| 20260902050039 | 49 | 152 | 0.0 | 3.0 | 0.00 | 0.00 | 0.00 | 97 | |
| 20260902043110 | 49 | 146 | 0.0 | 2.0 | 0.00 | 0.00 | 0.00 | 97 | |
| 20260902040120 | 50 | 156 | 0.0 | 2.0 | 0.00 | 0.00 | 0.00 | 97 | |
| 20260902033111 | 50 | 146 | 0.0 | 2.0 | 0.00 | 0.00 | 0.00 | 97 | |
| 20260902030041 | 50 | 149 | 1.0 | 3.0 | 0.00 | 0.00 | 0.00 | 96 | |
| 20260902023112 | 51 | 149 | 0.0 | 2.0 | 0.00 | 0.00 | 0.00 | 96 | |
| 20260902020042 | 51 | 146 | 0.0 | 2.0 | 0.00 | 0.00 | 0.00 | 95 | |
| 20260902013113 | 51 | 145 | 1.0 | 3.0 | 0.00 | 0.00 | 0.00 | 95 | |
| 20260902010043 | 52 | 143 | 1.0 | 2.0 | 0.00 | 0.00 | 0.00 | 94 | |
| 20260902003114 | 52 | 142 | 0.0 | 2.0 | 0.00 | 0.00 | 0.00 | 94 | |
| 20260902000104 | 53 | 147 | 0.0 | 3.0 | 0.00 | 0.00 | 0.00 | 93 | |
| 20260901233135 | 53 | 122 | 0.0 | 2.0 | 0.00 | 0.00 | 0.00 | 92 | |
| 20260901230045 | 54 | 145 | 0.0 | 2.0 | 0.00 | 0.00 | 0.00 | 92 | |
| 20260901223116 | 54 | 136 | 0.0 | 1.0 | 0.00 | 0.00 | 0.00 | 90 | |
| 20260901220046 | 55 | 142 | 0.0 | 2.0 | 0.00 | 0.00 | 0.00 | 89 | |
| 20260901213016 | 55 | 126 | 0.0 | 1.0 | 0.00 | 0.00 | 0.00 | 89 | |
| 20260901210047 | 56 | 0.0 | 0.0 | 0.00 | 0.00 | 0.00 | 87 | ||
| 20260901203017 | 57 | 127 | 0.0 | 1.0 | 0.00 | 0.00 | 0.00 | 85 | |
| 20260901200048 | 57 | 0.0 | 0.0 | 0.00 | 0.00 | 0.00 | 86 | ||
| 20260901193018 | 58 | 0.0 | 0.0 | 0.00 | 0.00 | 0.00 | 81 | ||
| 20260901190049 | 60 | 0.0 | 0.0 | 0.00 | 0.00 | 0.00 | 78 | ||
| 20260901183019 | 61 | 0.0 | 0.0 | 0.00 | 0.00 | 0.00 | 75 | ||
| 20260901180050 | 66 | 148 | 0.0 | 1.0 | 0.00 | 0.00 | 0.00 | 66 | |
| 20260901173040 | 71 | 201 | 0.0 | 2.0 | 0.00 | 0.00 | 0.00 | 55 | |
| 20260901170111 | 72 | 146 | 1.0 | 4.0 | 0.00 | 0.00 | 0.00 | 53 | |
| 20260901163021 | 73 | 196 | 1.0 | 7.0 | 0.00 | 0.00 | 0.00 | 51 | |
| 20260901160052 | 73 | 219 | 2.0 | 7.0 | 0.00 | 0.00 | 0.00 | 49 | |
| 20260901153023 | 74 | 212 | 2.0 | 6.0 | 0.00 | 0.00 | 0.00 | 48 | |
| 20260901150053 | 74 | 234 | 2.0 | 7.0 | 0.00 | 0.00 | 0.00 | 48 | |
| 20260901143043 | 75 | 230 | 2.0 | 8.0 | 0.00 | 0.00 | 0.00 | 48 | |
| 20260901140054 | 74 | 245 | 3.0 | 10.0 | 0.00 | 0.00 | 0.00 | 50 | |
| 20260901133024 | 74 | 193 | 2.0 | 7.0 | 0.00 | 0.00 | 0.00 | 51 | |
| 20260901130056 | 73 | 218 | 2.0 | 9.0 | 0.00 | 0.00 | 0.00 | 53 | |
| 20260901123026 | 72 | 192 | 2.0 | 6.0 | 0.00 | 0.00 | 0.00 | 55 | |
| 20260901120057 | 72 | 190 | 2.0 | 8.0 | 0.00 | 0.00 | 0.00 | 56 |